This is the latest recevied weather packets stored in our database for station/object KC4GS-13. If no packets are shown the sender has not sent any weather packets the latest 10 day(s).
| Time | Temp. | Humidity | Pressure | Rain* | Wind** | Luminosity | Snow |
|---|---|---|---|---|---|---|---|
| 1788132178 | 30.56° C | 63% | 1020.2 hPa | 0 mm | - | 18 W/m² | - |
| 1788131874 | 31.11° C | 62% | 1020.2 hPa | 0 mm | - | 21 W/m² | - |
| 1788131569 | 31.11° C | 62% | 1020.1 hPa | 0 mm | - | 23 W/m² | - |
| 1788131264 | 31.11° C | 61% | 1020 hPa | 0 mm | - | 25 W/m² | - |
| 1788130959 | 31.11° C | 61% | 1020 hPa | 0 mm | - | 27 W/m² | - |
| 1788130658 | 31.67° C | 59% | 1020.1 hPa | 0 mm | - | 29 W/m² | - |
| 1788130354 | 31.67° C | 59% | 1020 hPa | 0 mm | - | 31 W/m² | - |
| 1788130053 | 31.67° C | 59% | 1019.8 hPa | 0 mm | - | 33 W/m² | - |
| 1788129748 | 31.67° C | 59% | 1019.8 hPa | 0 mm | - | 35 W/m² | - |
| 1788129445 | 31.67° C | 59% | 1020.1 hPa | 0 mm | - | 36 W/m² | - |
| 1788129140 | 31.67° C | 58% | 1020.2 hPa | 0 mm | - | 39 W/m² | - |
| 1788128835 | 32.22° C | 57% | 1020 hPa | 0 mm | - | 41 W/m² | - |
| 1788128530 | 32.22° C | 56% | 1019.9 hPa | 0 mm | - | 43 W/m² | - |
| 1788128225 | 32.78° C | 56% | 1019.9 hPa | 0 mm | - | 56 W/m² | - |
| 1788127922 | 32.78° C | 55% | 1020.1 hPa | 0 mm | - | 211 W/m² | - |
| 1788127617 | 32.78° C | 57% | 1020 hPa | 0 mm | - | 257 W/m² | - |
| 1788127316 | 32.78° C | 58% | 1020.1 hPa | 0 mm | - | 177 W/m² | - |
| 1788127015 | 33.33° C | 56% | 1019.9 hPa | 0 mm | - | 55 W/m² | - |
| 1788126715 | 33.89° C | 54% | 1020.1 hPa | 0 mm | - | 129 W/m² | - |
| 1788126411 | 33.33° C | 55% | 1020 hPa | 0 mm | - | 323 W/m² | - |
| 1788126104 | 33.33° C | 55% | 1020 hPa | 0 mm | - | 372 W/m² | - |
| 1788125804 | 33.33° C | 56% | 1020 hPa | 0 mm | - | 383 W/m² | - |
| 1788125500 | 32.78° C | 57% | 1019.9 hPa | 0 mm | - | 390 W/m² | - |
| 1788125196 | 32.22° C | 58% | 1020 hPa | 0 mm | - | 405 W/m² | - |
| 1788124890 | 31.67° C | 60% | 1019.9 hPa | 0 mm | - | 415 W/m² | - |
* Rain latest hour (hover to see other rain measurements)
** Current wind speed in m/s (hover to see current wind gust speed)